Regional Weather Roundup
Issued by NWS

Home | Current Version | Previous Version | Graphics & Text | Print | Product List | Glossary On
Versions: 1 2 3 4 5 6 7 8 9 10 11 12 13 14 15 16 17 18 19 20 21 22 23 24 25 26 27 28 29 30 31 32 33 34 35 36 37 38 39 40 41 42 43 44 45 46 47 48 49 50
000
ASUS45 KABQ 271101
RWRNM
WEATHER ROUNDUP FOR NEW MEXICO
NATIONAL WEATHER SERVICE ALBUQUERQUE NM
500 AM MDT FRI MAR 27 2015

NOTE: "FAIR" MEANS FEW OR NO CLOUDS BELOW 12,000 FEET AGL WITH NO
       SIGNIFICANT WEATHER OR OBSTRUCTIONS TO VISION.

      THIS PRODUCT IS RELEASED AS TWO VERSIONS.  ONE VERSION NEAR
      THE TOP OF THE HOUR CONTAINING PRELIMINARY DATA FROM ALBUQUERQUE
      AND OTHER STATIONS.  A FINAL VERSION WITH ADDITIONAL DATA IS
      ISSUED ABOUT 10 MINUTES AFTER THE HOUR.

NMZ501-503-504-510>518-271200-
NORTHWEST PLATEAU/NORTHCENTRAL MOUNTAINS

CITY           SKY/WX    TMP DP  RH WIND       PRES   REMARKS
FARMINGTON     CLEAR     33  16  49 E5        30.28R WCI  29
SANTA FE       PTCLDY    37  16  42 CALM      30.26S
TAOS           PTCLDY    28  16  59 CALM      30.30S
ANGEL FIRE     FAIR      25  20  83 CALM      30.32F

$$
NMZ402-403-502-505>509-271200-
WESTCENTRAL MOUNTAINS/SOUTHWEST MOUNTAINS

CITY           SKY/WX    TMP DP  RH WIND       PRES   REMARKS
GALLUP         CLEAR     29  12  49 NE3       30.33F
SILVER CITY    CLEAR     37  21  52 N9        30.29S WCI  31

$$
NMZ407-409-411-412-271200-
SOUTHERN DESERTS

CITY           SKY/WX    TMP DP  RH WIND       PRES   REMARKS
DEMING         CLEAR     39  23  52 NW7       30.24S WCI  34
ALAMOGORDO     PTCLDY    45  19  36 CALM      30.24S
T OR C         CLEAR     45  18  34 W5        30.25R

$$
NMZ519>523-271200-
CENTRAL VALLEYS/CENTRAL HIGHLANDS

CITY           SKY/WX    TMP DP  RH WIND       PRES   REMARKS
ALBUQUERQUE    PTCLDY    48  19  31 CALM      30.26R
DOUBLE EAGLE   CLEAR     33  16  48 CALM      30.28R
CLINES CORNERS PTCLDY    38  16  40 NW12      30.25S WCI  30
BELEN          FAIR      38  20  48 W3        30.27R
SOCORRO        FAIR      38  17  42 CALM      30.26R

$$
NMZ524>526-539-540-271200-
SOUTHCENTRAL MOUNTAINS

CITY           SKY/WX    TMP DP  RH WIND       PRES   REMARKS
RUIDOSO        NOT AVBL

$$
NMZ527>531-271200-
NORTHEAST HIGHLANDS/NORTHEAST PLAINS

CITY           SKY/WX    TMP DP  RH WIND       PRES   REMARKS
LAS VEGAS      PTCLDY    37  18  46 N8        30.24F WCI  31
RATON          CLEAR     28  21  75 NE6       30.21F WCI  22
CLAYTON        CLEAR     35  24  64 N9        30.18S WCI  28

$$
NMZ532>537-271200-
EASTCENTRAL PLAINS

CITY           SKY/WX    TMP DP  RH WIND       PRES   REMARKS
TUCUMCARI      CLEAR     38  25  59 W10       30.15R WCI  31
CANNON AFB     NOT AVBL
CLOVIS AIRPORT CLEAR     37  21  52 SW8       30.17S WCI  31

$$
NMZ028-029-538-271200-
SOUTHEAST PLAINS

CITY           SKY/WX    TMP DP  RH WIND       PRES   REMARKS
ROSWELL        CLEAR     37  27  67 NW3       30.17R
ARTESIA        CLEAR     41  25  52 S3        30.18S
CARLSBAD       CLEAR     38  31  76 CALM      30.16S
HOBBS          CLEAR     37  25  60 CALM      30.20S


$$


USA.gov is the U.S. government's official web portal to all federal, state and local government web resources and services.